Redwood Falls, MN

1:42 PM CDT on August 23, 2017 (GMT -0500)
Redwood Falls Municipal

Weather History for KRWF - January, 2014

Change the Weather History Date:

Sunday, January 26, 2014

  Actual Average Record
Temperature  
Mean Temperature 8 °F -  
Max Temperature 23 °F 21 °F 57 °F (1944)
Min Temperature -8 °F 2 °F -22 °F (1950)
Degree Days  
Heating Degree Days 56    
Moisture  
Dew Point 2 °F    
Average Humidity 73    
Maximum Humidity 88    
Minimum Humidity 64    
Precipitation  
Precipitation 0.00 in - - ()
Sea Level Pressure  
Sea Level Pressure 29.72 in    
Wind  
Wind Speed 19 mph (NW)    
Max Wind Speed 38 mph    
Max Gust Speed 60 mph    
Visibility 4 miles    
Events Fog , Snow    
Averages and records for this station are not official NWS values.
T = Trace of Precipitation, MM = Missing Value Source: NWS Daily Summary

Daily Weather History Graph

Daily Weather History Graph

Search for Another Location

Airport or City:

Trip Planner

Search our weather history database for the weather conditions in past years. The results will help you decide how hot, cold, wet, or windy it might be!

Date:

Astronomy

Jan. 26, 2014 Rise Set
Actual Time 7:45 AM CST 5:21 PM CST
Civil Twilight 7:13 AM CST 5:52 PM CST
Nautical Twilight 6:38 AM CST 6:27 PM CST
Astronomical Twilight 6:04 AM CST 7:02 PM CST
Moon 3:24 AM CST (1/26) 1:09 PM CST (1/26)
Length of Visible Light 10h 38m
Length of Day
9h 35m
Waning Crescent, 23% of the Moon is Illuminated
Jan 26
Waning Crescent
Jan 30
New
Feb 6
First Quarter
Feb 14
Full
Feb 22
Last Quarter

Hourly Weather History & Observations

Time (CST) Temp. Windchill Dew Point Humidity Pressure Visibility Wind Dir Wind Speed Gust Speed Precip Events Conditions
12:41 AM 15.8 °F 2.1 °F 12.2 °F 86% 29.37 in 10.0 mi SE 12.7 mph - N/A   Overcast
12:53 AM 15.1 °F 2.5 °F 12.0 °F 88% 29.43 in 10.0 mi SE 10.4 mph - N/A   Overcast
1:53 AM 17.1 °F 7.6 °F 12.9 °F 84% 29.41 in 10.0 mi SE 6.9 mph - N/A   Overcast
2:28 AM 17.6 °F - 14.0 °F 86% 29.37 in 10.0 mi Calm Calm - N/A   Overcast
2:53 AM 19.0 °F 9.0 °F 15.1 °F 85% 29.42 in 10.0 mi West 8.1 mph - N/A   Overcast
3:53 AM 23.0 °F 6.9 °F 18.0 °F 81% 29.44 in 8.0 mi NW 24.2 mph 34.5 mph N/A   Overcast
4:53 AM 21.9 °F 6.9 °F 17.1 °F 82% 29.46 in 7.0 mi NW 19.6 mph 33.4 mph 0.00 in Snow Light Snow
5:40 AM 21.2 °F 4.5 °F 15.8 °F 80% 29.44 in 6.0 mi NW 24.2 mph 32.2 mph 0.00 in   Haze
5:53 AM 21.0 °F 4.6 °F 15.1 °F 78% 29.50 in 4.0 mi NW 23.0 mph 40.3 mph 0.00 in Snow Light Snow
6:30 AM 21.2 °F 6.0 °F 15.8 °F 80% 29.45 in 8.0 mi NW 19.6 mph 34.5 mph 0.00 in   Overcast
6:53 AM 19.9 °F 3.5 °F 14.0 °F 78% 29.51 in 5.0 mi NW 21.9 mph 33.4 mph 0.00 in Snow Light Snow
7:53 AM 19.9 °F 7.3 °F 14.0 °F 78% 29.51 in 10.0 mi NW 12.7 mph - 0.00 in   Overcast
8:02 AM 19.4 °F 8.6 °F 15.8 °F 86% 29.44 in 10.0 mi NW 9.2 mph 18.4 mph N/A   Overcast
8:53 AM 21.9 °F 9.2 °F 14.0 °F 72% 29.51 in 10.0 mi NW 13.8 mph 20.7 mph N/A   Overcast
9:35 AM 21.2 °F 7.3 °F 15.8 °F 80% 29.46 in 9.0 mi NW 16.1 mph 21.9 mph 0.00 in Snow Light Snow
9:53 AM 21.9 °F 7.3 °F 12.9 °F 68% 29.52 in 10.0 mi NW 18.4 mph 26.5 mph 0.00 in   Overcast
10:53 AM 21.9 °F 11.0 °F 14.0 °F 72% 29.53 in 9.0 mi NNW 10.4 mph 25.3 mph N/A   Overcast
11:02 AM 21.2 °F 6.0 °F 14.0 °F 74% 29.49 in 1.8 mi NW 19.6 mph 31.1 mph 0.00 in Snow Light Snow
11:13 AM 19.4 °F 4.5 °F 12.2 °F 74% 29.50 in 1.8 mi NNW 17.3 mph 27.6 mph 0.00 in Snow Light Snow
11:16 AM 19.4 °F 5.0 °F 12.2 °F 74% 29.50 in 3.0 mi NNW 16.1 mph 27.6 mph 0.00 in Snow Light Snow
11:40 AM 19.4 °F 4.1 °F 12.2 °F 74% 29.51 in 1.8 mi NW 18.4 mph 25.3 mph 0.00 in Snow Light Snow
11:53 AM 19.9 °F 3.5 °F 14.0 °F 78% 29.57 in 0.5 mi NW 21.9 mph 32.2 mph 0.00 in Snow Snow
12:18 PM 19.4 °F 2.1 °F 15.8 °F 86% 29.52 in 0.2 mi NW 24.2 mph 29.9 mph 0.00 in Fog , Snow Heavy Snow
12:49 PM 15.8 °F -0.6 °F 8.6 °F 73% 29.56 in 1.2 mi NW 18.4 mph 32.2 mph 0.00 in Snow Light Snow
12:53 PM 15.1 °F -2.0 °F 9.0 °F 77% 29.62 in 1.5 mi NNW 19.6 mph 32.2 mph 0.00 in   Overcast
1:04 PM 15.8 °F -3.4 °F 6.8 °F 68% 29.57 in 2.0 mi NNW 26.5 mph 38.0 mph 0.00 in   Mostly Cloudy
1:07 PM 15.8 °F -3.1 °F 6.8 °F 68% 29.57 in 1.5 mi NNW 25.3 mph 39.1 mph 0.00 in Snow Light Snow
1:26 PM 12.2 °F -7.9 °F 3.2 °F 67% 29.59 in 0.8 mi NNW 25.3 mph 36.8 mph 0.00 in Snow Light Snow
1:40 PM 14.0 °F -5.1 °F 5.0 °F 67% 29.60 in 1.5 mi NNW 24.2 mph 36.8 mph 0.00 in Snow Light Snow
1:53 PM 12.9 °F -6.5 °F 6.1 °F 74% 29.67 in 0.5 mi NNW 24.2 mph 35.7 mph 0.00 in Snow Snow
2:01 PM 12.2 °F -7.1 °F 6.8 °F 79% 29.62 in 0.8 mi NNW 23.0 mph 38.0 mph 0.00 in Snow Light Snow
2:18 PM 10.4 °F -9.9 °F 1.4 °F 67% 29.65 in 0.5 mi NNW 24.2 mph 43.7 mph 0.00 in Snow Snow
2:25 PM 10.4 °F -10.7 °F 1.4 °F 67% 29.66 in 1.0 mi NW 26.5 mph 39.1 mph 0.00 in Snow Light Snow
2:35 PM 8.6 °F -13.1 °F -0.4 °F 67% 29.66 in 0.8 mi NNW 26.5 mph 43.7 mph 0.00 in Snow Light Snow
2:45 PM 8.6 °F -13.4 °F -0.4 °F 67% 29.68 in 0.8 mi NW 27.6 mph 44.9 mph 0.00 in Snow Light Snow
2:51 PM 8.6 °F -13.1 °F -0.4 °F 67% 29.69 in 0.8 mi NW 26.5 mph 44.9 mph 0.00 in Snow Light Snow
2:53 PM 9.0 °F -14.3 °F -0.9 °F 64% 29.75 in 0.8 mi NW 32.2 mph 43.7 mph 0.00 in Snow Light Snow
3:06 PM 8.6 °F -11.4 °F -0.4 °F 67% 29.71 in 1.0 mi NNW 21.9 mph 43.7 mph 0.00 in Snow Light Snow
3:14 PM 6.8 °F -15.1 °F -0.4 °F 72% 29.72 in 1.2 mi NNW 25.3 mph 43.7 mph 0.00 in Snow Light Snow
3:22 PM 6.8 °F -14.7 °F -0.4 °F 72% 29.73 in 1.0 mi NW 24.2 mph 46.0 mph 0.00 in Snow Light Snow
3:35 PM 5.0 °F -17.9 °F -2.2 °F 72% 29.74 in 0.8 mi NW 26.5 mph 42.6 mph 0.00 in Snow Light Snow
3:50 PM 5.0 °F -16.7 °F -2.2 °F 72% 29.76 in 1.0 mi NW 23.0 mph 43.7 mph 0.00 in Snow Light Snow
3:53 PM 5.0 °F -20.1 °F -2.9 °F 70% 29.83 in 0.8 mi NW 33.4 mph 46.0 mph 0.00 in Snow Light Snow
4:26 PM 1.4 °F -24.3 °F -5.8 °F 72% 29.82 in 0.5 mi NW 31.1 mph 51.8 mph 0.00 in Snow Snow
4:43 PM 1.4 °F -25.7 °F -7.6 °F 66% 29.84 in 0.8 mi NW 35.7 mph 50.6 mph 0.00 in Snow Light Snow
4:53 PM 1.0 °F -24.4 °F -8.0 °F 66% 29.91 in 1.0 mi NNW 29.9 mph 43.7 mph 0.00 in Snow Light Snow
5:12 PM -0.4 °F -28.8 °F -7.6 °F 72% 29.87 in 0.8 mi NW 38.0 mph 48.3 mph 0.00 in Snow Light Snow
5:45 PM -0.4 °F -25.2 °F -7.6 °F 72% 29.91 in 1.2 mi NW 26.5 mph 47.2 mph 0.00 in Snow Light Snow
5:53 PM -0.0 °F -25.9 °F -8.0 °F 69% 29.99 in 2.5 mi NNW 29.9 mph 40.3 mph 0.00 in Snow Light Snow
6:07 PM -0.4 °F -28.5 °F -7.6 °F 72% 29.93 in 1.2 mi NW 36.8 mph 47.2 mph 0.00 in Snow Light Snow
6:17 PM -0.4 °F -26.4 °F -9.4 °F 66% 29.94 in 1.2 mi NNW 29.9 mph 47.2 mph 0.00 in Snow Light Snow
6:38 PM -0.4 °F -24.3 °F -7.6 °F 72% 29.97 in 2.0 mi NNW 24.2 mph 44.9 mph 0.00 in Snow Light Snow
6:45 PM -0.4 °F -25.6 °F -7.6 °F 72% 29.97 in 1.5 mi NW 27.6 mph 40.3 mph 0.00 in Snow Light Snow
6:53 PM -0.9 °F -28.5 °F -8.0 °F 72% 30.05 in 1.0 mi NW 34.5 mph 59.8 mph 0.00 in Snow Light Snow
7:12 PM -2.2 °F -26.7 °F -9.4 °F 71% 30.00 in 2.5 mi NNW 24.2 mph 39.1 mph 0.00 in Snow Light Snow
7:40 PM -2.2 °F -30.3 °F -9.4 °F 71% 30.03 in 1.8 mi NNW 34.5 mph 48.3 mph 0.00 in Snow Light Snow
7:53 PM -2.9 °F -28.6 °F -9.9 °F 72% 30.12 in 2.0 mi NNW 26.5 mph 43.7 mph 0.00 in Snow Light Snow
8:10 PM -2.2 °F -28.0 °F -11.2 °F 66% 30.06 in 2.5 mi NW 27.6 mph 48.3 mph 0.00 in Snow Light Snow
8:25 PM -4.0 °F -26.4 °F -11.2 °F 71% 30.07 in 5.0 mi NNW 18.4 mph 36.8 mph 0.00 in Snow Light Snow
8:53 PM -4.0 °F -28.6 °F -11.9 °F 69% 30.17 in 4.0 mi NNW 23.0 mph 36.8 mph 0.00 in Snow Light Snow
9:53 PM -4.0 °F -30.4 °F -11.9 °F 69% 30.20 in 3.0 mi NW 27.6 mph 40.3 mph 0.00 in Snow Light Snow
10:13 PM -5.8 °F -33.7 °F -14.8 °F 65% 30.13 in 6.0 mi NW 29.9 mph 42.6 mph 0.00 in Snow Light Snow
10:37 PM -5.8 °F -32.0 °F -14.8 °F 65% 30.15 in 8.0 mi NW 25.3 mph 36.8 mph 0.00 in Snow Light Snow
10:53 PM -6.0 °F -31.2 °F -15.0 °F 65% 30.23 in 5.0 mi NW 23.0 mph 43.7 mph 0.00 in Snow Light Snow
11:53 PM -8.0 °F -33.9 °F -17.0 °F 65% 30.28 in 8.0 mi NNW 23.0 mph 34.5 mph 0.00 in Snow Light Snow